RYR99CC LIRN-LIME

Flight info

Callsign RYR99CC
Flight time 1h 2m
Altitude 34000
Route ALAXI DCT INSOX DCT AMTEL DCT KUGIX DCT LOMED DCT IPLUB DCT OSBUL
Aircraft B738/M-SDE3FGIJ1LRWY/SB1

Departure

Time 2026-05-07 02:47
Airport Naples International Airport (LIRN)

Arrival

Time 2026-05-07 03:49
Airport Il Caravaggio International Airport (LIME)
Time Latitude Longitude Altitude Speed Heading
2026-05-07 02:09 40.87868 14.28406 288 ft 0 kts 187°
2026-05-07 02:31 40.87874 14.28407 288 ft 4 kts 187°
2026-05-07 02:32 40.87901 14.28411 296 ft 4 kts 187°
2026-05-07 02:32 40.87924 14.28413 295 ft 4 kts 158°
2026-05-07 02:32 40.87940 14.28392 293 ft 4 kts 102°
2026-05-07 02:32 40.87942 14.28372 288 ft 1 kts 98°
2026-05-07 02:33 40.87942 14.28370 288 ft 0 kts 98°
2026-05-07 02:35 40.87941 14.28383 291 ft 4 kts 98°
2026-05-07 02:36 40.87941 14.28442 289 ft 8 kts 76°
2026-05-07 02:36 40.87977 14.28496 285 ft 8 kts 45°
2026-05-07 02:36 40.88017 14.28558 284 ft 9 kts 50°
2026-05-07 02:36 40.88058 14.28630 282 ft 10 kts 53°
2026-05-07 02:37 40.88102 14.28707 280 ft 11 kts 53°
2026-05-07 02:37 40.88148 14.28785 278 ft 11 kts 52°
2026-05-07 02:37 40.88192 14.28860 276 ft 10 kts 52°
2026-05-07 02:37 40.88236 14.28933 274 ft 10 kts 52°
2026-05-07 02:38 40.88276 14.29005 273 ft 10 kts 53°
2026-05-07 02:38 40.88316 14.29075 275 ft 9 kts 52°
2026-05-07 02:38 40.88356 14.29143 269 ft 9 kts 52°
2026-05-07 02:38 40.88399 14.29218 267 ft 11 kts 52°
2026-05-07 02:39 40.88452 14.29309 265 ft 14 kts 52°
2026-05-07 02:39 40.88515 14.29419 262 ft 16 kts 52°
2026-05-07 02:39 40.88588 14.29544 258 ft 19 kts 52°
2026-05-07 02:39 40.88671 14.29688 254 ft 21 kts 52°
2026-05-07 02:40 40.88764 14.29848 249 ft 23 kts 52°
2026-05-07 02:40 40.88851 14.29998 244 ft 15 kts 52°
2026-05-07 02:40 40.88912 14.30103 240 ft 14 kts 52°
2026-05-07 02:40 40.88962 14.30190 237 ft 9 kts 52°
2026-05-07 02:41 40.89004 14.30263 236 ft 11 kts 52°
2026-05-07 02:41 40.89053 14.30348 231 ft 12 kts 52°
2026-05-07 02:41 40.89098 14.30424 228 ft 10 kts 49°
2026-05-07 02:41 40.89155 14.30449 226 ft 9 kts 348°
2026-05-07 02:42 40.89205 14.30408 225 ft 8 kts 325°
2026-05-07 02:42 40.89218 14.30391 226 ft 1 kts 285°
2026-05-07 02:42 40.89215 14.30384 226 ft 1 kts 250°
2026-05-07 02:42 40.89214 14.30377 226 ft 1 kts 250°
2026-05-07 02:43 40.89212 14.30371 226 ft 1 kts 250°
2026-05-07 02:43 40.89210 14.30364 226 ft 1 kts 250°
2026-05-07 02:43 40.89208 14.30358 229 ft 1 kts 243°
2026-05-07 02:43 40.89206 14.30355 228 ft 0 kts 240°
2026-05-07 02:46 40.89135 14.30201 233 ft 50 kts 238°
2026-05-07 02:46 40.88835 14.29566 253 ft 111 kts 238°
2026-05-07 02:46 40.88340 14.28527 286 ft 158 kts 237°
2026-05-07 02:47 40.87736 14.27228 790 ft 163 kts 237°
2026-05-07 02:47 40.87152 14.25919 1280 ft 171 kts 248°
2026-05-07 02:47 40.87174 14.24404 1708 ft 172 kts 300°
2026-05-07 02:47 40.87977 14.23254 2119 ft 170 kts 311°
2026-05-07 02:48 40.88736 14.22071 2543 ft 166 kts 304°
2026-05-07 02:48 40.89409 14.20830 2969 ft 165 kts 300°
2026-05-07 02:48 40.90029 14.19550 3385 ft 166 kts 298°
2026-05-07 02:48 40.90648 14.18171 3544 ft 184 kts 296°
2026-05-07 02:49 40.91318 14.16604 3784 ft 205 kts 296°
2026-05-07 02:49 40.92026 14.14906 4204 ft 214 kts 295°
2026-05-07 02:49 40.92816 14.13236 4847 ft 221 kts 310°
2026-05-07 02:49 40.94164 14.12177 5405 ft 241 kts 339°
2026-05-07 02:50 40.95928 14.11816 5618 ft 269 kts 347°
2026-05-07 02:50 40.97652 14.10896 6056 ft 269 kts 318°
2026-05-07 02:50 40.99139 14.09367 6761 ft 271 kts 315°
2026-05-07 02:50 41.00629 14.07819 7533 ft 272 kts 315°
2026-05-07 02:51 41.02123 14.06285 8363 ft 272 kts 315°
2026-05-07 02:51 41.03612 14.04772 9146 ft 274 kts 315°
2026-05-07 02:51 41.05132 14.03238 10003 ft 275 kts 314°
2026-05-07 02:51 41.06680 14.01679 10526 ft 290 kts 315°
2026-05-07 02:52 41.08355 13.99988 10724 ft 314 kts 315°
2026-05-07 02:52 41.10129 13.98212 11264 ft 324 kts 316°
2026-05-07 02:52 41.11951 13.96403 12026 ft 328 kts 316°
2026-05-07 02:52 41.13792 13.94582 12859 ft 331 kts 317°
2026-05-07 02:53 41.15658 13.92734 13601 ft 337 kts 318°
2026-05-07 02:53 41.17551 13.90859 14254 ft 342 kts 318°
2026-05-07 02:53 41.19471 13.88956 14990 ft 346 kts 318°
2026-05-07 02:53 41.21410 13.87032 15696 ft 350 kts 318°
2026-05-07 02:54 41.23375 13.85078 16382 ft 356 kts 318°
2026-05-07 02:54 41.25353 13.83110 16988 ft 363 kts 319°
2026-05-07 02:54 41.27390 13.81082 17681 ft 367 kts 319°
2026-05-07 02:54 41.29453 13.79028 18388 ft 372 kts 319°
2026-05-07 02:55 41.31533 13.76954 18998 ft 376 kts 319°
2026-05-07 02:55 41.33637 13.74855 19634 ft 379 kts 319°
2026-05-07 02:55 41.35751 13.72745 20252 ft 382 kts 319°
2026-05-07 02:55 41.37897 13.70601 20887 ft 386 kts 319°
2026-05-07 02:56 41.39322 13.69175 21290 ft 388 kts 319°
2026-05-07 02:56 41.42208 13.66285 22088 ft 393 kts 319°
2026-05-07 02:56 41.44406 13.64083 22673 ft 397 kts 319°
2026-05-07 02:56 41.46618 13.61864 23235 ft 400 kts 319°
2026-05-07 02:57 41.48853 13.59620 23762 ft 404 kts 319°
2026-05-07 02:57 41.51107 13.57355 24217 ft 407 kts 319°
2026-05-07 02:57 41.52606 13.55848 24524 ft 409 kts 319°
2026-05-07 02:57 41.55669 13.52764 25116 ft 414 kts 319°
2026-05-07 02:58 41.57196 13.51226 25398 ft 416 kts 319°
2026-05-07 02:58 41.60305 13.48092 26019 ft 420 kts 318°
2026-05-07 02:58 41.61857 13.46525 26339 ft 422 kts 318°
2026-05-07 02:58 41.64206 13.44152 26737 ft 426 kts 318°
2026-05-07 02:59 41.66578 13.41754 27123 ft 430 kts 318°
2026-05-07 02:59 41.68974 13.39329 27525 ft 433 kts 318°
2026-05-07 02:59 41.71381 13.36891 27944 ft 436 kts 318°
2026-05-07 02:59 41.73777 13.34380 28327 ft 437 kts 314°
2026-05-07 03:00 41.75907 13.31499 28694 ft 435 kts 307°
2026-05-07 03:00 41.77911 13.28468 29202 ft 435 kts 306°
2026-05-07 03:00 41.79930 13.25465 29784 ft 433 kts 307°
2026-05-07 03:00 41.81975 13.22495 30298 ft 433 kts 308°
2026-05-07 03:01 41.84187 13.19721 30735 ft 437 kts 314°
2026-05-07 03:01 41.86511 13.17093 31224 ft 436 kts 315°
2026-05-07 03:01 41.88849 13.14531 31749 ft 433 kts 315°
2026-05-07 03:01 41.91186 13.11982 32185 ft 431 kts 316°
2026-05-07 03:02 41.93484 13.09462 32813 ft 425 kts 315°
2026-05-07 03:02 41.95764 13.06939 33208 ft 425 kts 315°
2026-05-07 03:02 41.98047 13.04388 33527 ft 427 kts 315°
2026-05-07 03:02 42.00328 13.01825 33930 ft 427 kts 315°
2026-05-07 03:03 42.04891 12.96673 34015 ft 432 kts 315°
2026-05-07 03:03 42.09446 12.91524 33999 ft 423 kts 315°
2026-05-07 03:04 42.13955 12.86411 34000 ft 424 kts 315°
2026-05-07 03:04 42.18472 12.81279 34001 ft 425 kts 315°
2026-05-07 03:05 42.23004 12.76120 34020 ft 427 kts 315°
2026-05-07 03:05 42.27546 12.70942 34005 ft 427 kts 315°
2026-05-07 03:06 42.32081 12.65764 34011 ft 426 kts 315°
2026-05-07 03:06 42.36589 12.60606 33999 ft 423 kts 314°
2026-05-07 03:07 42.41063 12.55477 33999 ft 420 kts 314°
2026-05-07 03:07 42.45515 12.50362 33993 ft 419 kts 314°
2026-05-07 03:08 42.49948 12.45258 34000 ft 418 kts 314°
2026-05-07 03:08 42.54370 12.40156 34015 ft 417 kts 314°
2026-05-07 03:09 42.58800 12.35036 33997 ft 419 kts 313°
2026-05-07 03:09 42.63236 12.29899 34000 ft 419 kts 313°
2026-05-07 03:10 42.67648 12.24781 33992 ft 421 kts 313°
2026-05-07 03:10 42.72097 12.19609 33998 ft 421 kts 313°
2026-05-07 03:11 42.76550 12.14423 33995 ft 422 kts 313°
2026-05-07 03:11 42.81007 12.09223 34001 ft 422 kts 313°
2026-05-07 03:12 42.85463 12.04013 34004 ft 422 kts 312°
2026-05-07 03:12 42.89914 11.98800 33989 ft 420 kts 312°
2026-05-07 03:13 42.94337 11.93609 33994 ft 418 kts 312°
2026-05-07 03:13 42.98743 11.88425 33994 ft 419 kts 312°
2026-05-07 03:14 43.03148 11.83233 34012 ft 417 kts 311°
2026-05-07 03:15 43.09716 11.75474 33991 ft 415 kts 311°
2026-05-07 03:15 43.14067 11.70319 34000 ft 414 kts 311°
2026-05-07 03:16 43.18399 11.65178 34003 ft 415 kts 311°
2026-05-07 03:16 43.22885 11.60142 33986 ft 423 kts 320°
2026-05-07 03:17 43.28114 11.56216 33999 ft 429 kts 324°
2026-05-07 03:17 43.33406 11.52413 33994 ft 430 kts 324°
2026-05-07 03:18 43.38653 11.48565 34000 ft 430 kts 324°
2026-05-07 03:18 43.43918 11.44654 33996 ft 430 kts 324°
2026-05-07 03:19 43.49195 11.40721 34000 ft 431 kts 323°
2026-05-07 03:19 43.54445 11.36805 34003 ft 431 kts 323°
2026-05-07 03:20 43.59732 11.32849 33999 ft 432 kts 323°
2026-05-07 03:20 43.65021 11.28877 34002 ft 432 kts 323°
2026-05-07 03:21 43.70290 11.24917 33988 ft 425 kts 323°
2026-05-07 03:21 43.75356 11.21112 33977 ft 405 kts 323°
2026-05-07 03:21 43.77797 11.19278 33967 ft 393 kts 322°
2026-05-07 03:22 43.80165 11.17492 33853 ft 384 kts 322°
2026-05-07 03:22 43.82512 11.15710 33076 ft 388 kts 322°
2026-05-07 03:22 43.84927 11.13861 31937 ft 402 kts 323°
2026-05-07 03:22 43.87352 11.12020 31654 ft 392 kts 323°
2026-05-07 03:23 43.89737 11.10216 31256 ft 387 kts 322°
2026-05-07 03:23 43.92086 11.08438 30903 ft 380 kts 322°
2026-05-07 03:23 43.94389 11.06691 30565 ft 374 kts 322°
2026-05-07 03:23 43.96645 11.04975 30235 ft 367 kts 322°
2026-05-07 03:24 43.98874 11.03277 29890 ft 363 kts 321°
2026-05-07 03:24 44.01091 11.01594 29509 ft 367 kts 323°
2026-05-07 03:24 44.03420 11.00027 28712 ft 376 kts 327°
2026-05-07 03:24 44.05837 10.98542 27858 ft 383 kts 328°
2026-05-07 03:25 44.08259 10.97105 27456 ft 381 kts 328°
2026-05-07 03:25 44.10696 10.95664 27047 ft 381 kts 327°
2026-05-07 03:25 44.13121 10.94217 26674 ft 378 kts 327°
2026-05-07 03:25 44.15523 10.92770 26302 ft 375 kts 327°
2026-05-07 03:26 44.17910 10.91320 25958 ft 373 kts 327°
2026-05-07 03:26 44.20280 10.89870 25617 ft 371 kts 327°
2026-05-07 03:26 44.22639 10.88420 25267 ft 371 kts 327°
2026-05-07 03:26 44.24995 10.86967 24915 ft 370 kts 327°
2026-05-07 03:27 44.27341 10.85518 24560 ft 368 kts 327°
2026-05-07 03:27 44.29681 10.84072 24222 ft 367 kts 327°
2026-05-07 03:27 44.32014 10.82626 23850 ft 367 kts 327°
2026-05-07 03:27 44.34344 10.81184 23499 ft 365 kts 327°
2026-05-07 03:28 44.36659 10.79749 23102 ft 363 kts 327°
2026-05-07 03:28 44.38967 10.78317 22737 ft 361 kts 328°
2026-05-07 03:28 44.41257 10.76896 22373 ft 359 kts 328°
2026-05-07 03:28 44.43509 10.75497 22033 ft 357 kts 328°
2026-05-07 03:29 44.45777 10.74087 21684 ft 355 kts 328°
2026-05-07 03:29 44.48027 10.72687 21343 ft 352 kts 328°
2026-05-07 03:29 44.50261 10.71294 21015 ft 350 kts 328°
2026-05-07 03:29 44.52482 10.69910 20672 ft 348 kts 328°
2026-05-07 03:30 44.54693 10.68530 20344 ft 347 kts 328°
2026-05-07 03:30 44.56895 10.67154 20020 ft 345 kts 328°
2026-05-07 03:30 44.59086 10.65784 19667 ft 344 kts 328°
2026-05-07 03:30 44.61272 10.64415 19337 ft 343 kts 328°
2026-05-07 03:31 44.63453 10.63049 19011 ft 342 kts 328°
2026-05-07 03:31 44.65592 10.61708 18701 ft 340 kts 329°
2026-05-07 03:31 44.67753 10.60351 18349 ft 340 kts 329°
2026-05-07 03:31 44.69907 10.58999 17989 ft 338 kts 329°
2026-05-07 03:32 44.72055 10.57650 17633 ft 336 kts 329°
2026-05-07 03:32 44.74193 10.56305 17276 ft 334 kts 330°
2026-05-07 03:32 44.76308 10.54976 16942 ft 332 kts 330°
2026-05-07 03:32 44.78410 10.53652 16612 ft 330 kts 330°
2026-05-07 03:33 44.80499 10.52336 16282 ft 327 kts 330°
2026-05-07 03:33 44.82569 10.51030 15956 ft 325 kts 330°
2026-05-07 03:33 44.84626 10.49732 15640 ft 323 kts 330°
2026-05-07 03:33 44.86667 10.48442 15322 ft 321 kts 331°
2026-05-07 03:34 44.88695 10.47159 15003 ft 319 kts 331°
2026-05-07 03:34 44.90716 10.45880 14700 ft 317 kts 331°
2026-05-07 03:34 44.92724 10.44608 14388 ft 315 kts 331°
2026-05-07 03:34 44.94699 10.43356 14080 ft 314 kts 332°
2026-05-07 03:35 44.96689 10.42094 13772 ft 312 kts 332°
2026-05-07 03:35 44.98665 10.40839 13419 ft 311 kts 332°
2026-05-07 03:35 45.00634 10.39589 13078 ft 309 kts 332°
2026-05-07 03:35 45.02585 10.38349 12764 ft 307 kts 332°
2026-05-07 03:36 45.04528 10.37113 12450 ft 305 kts 332°
2026-05-07 03:36 45.06454 10.35887 12135 ft 303 kts 332°
2026-05-07 03:36 45.08370 10.34666 11816 ft 301 kts 332°
2026-05-07 03:36 45.10279 10.33449 11527 ft 300 kts 332°
2026-05-07 03:37 45.12178 10.32238 11222 ft 299 kts 332°
2026-05-07 03:37 45.14071 10.31029 10903 ft 298 kts 332°
2026-05-07 03:37 45.15965 10.29818 10590 ft 297 kts 332°
2026-05-07 03:37 45.17846 10.28614 10290 ft 296 kts 333°
2026-05-07 03:38 45.19723 10.27412 10026 ft 294 kts 333°
2026-05-07 03:38 45.21566 10.26235 9860 ft 288 kts 333°
2026-05-07 03:38 45.23375 10.25076 9552 ft 288 kts 333°
2026-05-07 03:38 45.25213 10.23898 9239 ft 288 kts 333°
2026-05-07 03:39 45.27037 10.22727 8933 ft 287 kts 333°
2026-05-07 03:39 45.28851 10.21561 8655 ft 285 kts 333°
2026-05-07 03:39 45.30653 10.20402 8374 ft 284 kts 333°
2026-05-07 03:39 45.32453 10.19244 8096 ft 283 kts 333°
2026-05-07 03:40 45.34242 10.18094 7796 ft 282 kts 333°
2026-05-07 03:40 45.36029 10.16943 7518 ft 281 kts 333°
2026-05-07 03:40 45.37806 10.15797 7245 ft 280 kts 333°
2026-05-07 03:40 45.39557 10.14669 6966 ft 279 kts 333°
2026-05-07 03:41 45.41326 10.13527 6676 ft 278 kts 334°
2026-05-07 03:41 45.43085 10.12392 6433 ft 276 kts 333°
2026-05-07 03:41 45.44827 10.11267 6144 ft 274 kts 333°
2026-05-07 03:41 45.46556 10.10149 5877 ft 273 kts 333°
2026-05-07 03:42 45.48283 10.09030 5581 ft 272 kts 333°
2026-05-07 03:42 45.49996 10.07920 5317 ft 270 kts 334°
2026-05-07 03:42 45.51690 10.06823 5187 ft 263 kts 334°
2026-05-07 03:42 45.53326 10.05762 5120 ft 251 kts 334°
2026-05-07 03:43 45.54867 10.04764 5021 ft 237 kts 334°
2026-05-07 03:43 45.56307 10.03831 4913 ft 224 kts 334°
2026-05-07 03:43 45.57685 10.02936 4843 ft 212 kts 334°
2026-05-07 03:43 45.58985 10.02093 4757 ft 198 kts 334°
2026-05-07 03:44 45.60205 10.01300 4672 ft 186 kts 333°
2026-05-07 03:44 45.61127 10.00199 4656 ft 167 kts 292°
2026-05-07 03:44 45.61526 9.98630 4493 ft 173 kts 288°
2026-05-07 03:44 45.61902 9.97022 4290 ft 169 kts 286°
2026-05-07 03:45 45.62226 9.95421 4037 ft 167 kts 284°
2026-05-07 03:45 45.62427 9.94361 3888 ft 167 kts 284°
2026-05-07 03:45 45.62824 9.92222 3620 ft 163 kts 284°
2026-05-07 03:45 45.63011 9.91199 3455 ft 158 kts 284°
2026-05-07 03:46 45.63286 9.89694 3248 ft 155 kts 284°
2026-05-07 03:46 45.63560 9.88194 3046 ft 157 kts 285°
2026-05-07 03:46 45.63839 9.86679 2830 ft 158 kts 285°
2026-05-07 03:46 45.64113 9.85178 2617 ft 157 kts 285°
2026-05-07 03:47 45.64391 9.83665 2414 ft 158 kts 285°
2026-05-07 03:47 45.64672 9.82147 2192 ft 158 kts 285°
2026-05-07 03:47 45.64949 9.80634 1978 ft 155 kts 285°
2026-05-07 03:47 45.65223 9.79151 1748 ft 156 kts 286°
2026-05-07 03:48 45.65491 9.77651 1519 ft 153 kts 285°
2026-05-07 03:48 45.65758 9.76191 1335 ft 150 kts 286°
2026-05-07 03:48 45.66030 9.74747 1122 ft 151 kts 287°
2026-05-07 03:48 45.66293 9.73312 931 ft 148 kts 287°
2026-05-07 03:49 45.66559 9.71890 788 ft 145 kts 286°
2026-05-07 03:49 45.66788 9.70677 788 ft 105 kts 284°
2026-05-07 03:49 45.66894 9.70098 786 ft 32 kts 285°
2026-05-07 03:49 45.66952 9.69800 786 ft 30 kts 285°
2026-05-07 03:50 45.67003 9.69519 786 ft 28 kts 284°
2026-05-07 03:50 45.67036 9.69333 786 ft 16 kts 284°
2026-05-07 03:50 45.67043 9.69291 786 ft 16 kts 284°
2026-05-07 03:50 45.67068 9.69142 786 ft 15 kts 275°
2026-05-07 03:51 45.67040 9.69022 786 ft 9 kts 222°
2026-05-07 03:51 45.66986 9.68992 786 ft 8 kts 189°
2026-05-07 03:51 45.66971 9.68989 786 ft 0 kts 189°
2026-05-07 03:52 45.66968 9.68988 786 ft 1 kts 189°
2026-05-07 03:52 45.66952 9.68986 786 ft 4 kts 181°
2026-05-07 03:52 45.66922 9.69005 786 ft 6 kts 135°
2026-05-07 03:53 45.66907 9.69069 786 ft 8 kts 99°
2026-05-07 03:53 45.66898 9.69153 786 ft 5 kts 102°
2026-05-07 03:53 45.66888 9.69214 786 ft 7 kts 108°
2026-05-07 03:53 45.66874 9.69253 786 ft 2 kts 142°
2026-05-07 03:54 45.66867 9.69255 786 ft 2 kts 174°
2026-05-07 03:54 45.66854 9.69245 786 ft 3 kts 210°
2026-05-07 03:54 45.66830 9.69244 786 ft 4 kts 182°
2026-05-07 03:54 45.66807 9.69237 786 ft 0 kts 195°
2026-05-07 03:55 45.66803 9.69235 786 ft 0 kts 196°